sat.trackr.live / text

‹ back to catalog

UNKNOWN

NORAD 81552

UNKNOWN UNKNOWN UNKNOWN

§ Identity

Operator
Country
Launch date
Launch site
Launch vehicle
Mass (kg)
RCS (m²)

External: N2YO · Heavens-Above

§ Orbital elements

Epoch: 2026-05-23T04:55:04.729440Z

Period
109.22 min
Inclination
99.0684°
Eccentricity
0.0256932
Mean motion
13.18447020 rev/d
Perigee alt
996.2 km
Apogee alt
1,385.1 km
Semi-major
7,568.8 km
B*
1.5122e-3
RAAN
52.7151°
Arg perigee
350.7952°
Mean anomaly
8.8506°
Rev number
60,052

§ Raw data

UNKNOWN1 81552U          26143.20491585  .00000669  00000+0  15122-2 0  99942 81552  99.0684  52.7151 0256932 350.7952   8.8506 13.18447020600528

JSON: /api/v1/satellites/81552 · /tle

For live sub-satellite position, see the globe view (requires WebGL).

§ Visibility from observer

Set your observer location to see the next 7 days of passes ≥ 10°. The values pass through the URL so the page stays shareable.

No JS? Fill the form by hand. The geolocation button needs JavaScript.